Location: Newark
(40.3820°N, 3.6624°W)
Time: 04:41:04
(UTC+00:00)

N. Korean satellite - Pass Details

Date: 19 November 2019
Orbit: 455 x 507 km, 97.2° (Epoch: 14 December)

Event Time Altitude Azimuth Distance (km) Brightness Sun altitude
Rises 06:08:39 0° 11° (N) 2,614 10.2 -10.8°
Reaches altitude 10° 06:10:46 10° 11° (N) 1,720 9.3 -10.4°
Maximum altitude 06:14:29 87° 282° (WNW) 505 6.6 -9.8°
Drops below altitude 10° 06:18:07 10° 194° (SSW) 1,684 9.4 -9.1°
Sets 06:20:09 0° 194° (SSW) 2,552 10.3 -8.7°
